Creek Data

    Home     View Charts     View Raw Data     Messages

ID Distance Battery Voltage Battery Current Internal Temp Internal Humidity External Temp Solar Input rssi snr Time Stamp Record
68237 14.8 3.72 0 75 54 72 5.1 -77 7 03/07/2026 05:00 PM 51102
68236 14.8 3.73 5 76 54 72 5.1 -76 7 03/07/2026 04:45 PM 51101
68235 14.8 3.72 0 77 53 72 5.1 -77 8 03/07/2026 04:30 PM 51100
68234 14.8 3.79 0 78 53 73 5.1 -76 7 03/07/2026 04:15 PM 51099
68233 14.8 3.82 0 78 53 73 5.1 -76 8 03/07/2026 04:00 PM 51098
68232 14.8 3.72 0 78 53 73 5.1 -78 9 03/07/2026 03:45 PM 51097
68231 14.8 3.72 0 79 53 73 5.1 -77 8 03/07/2026 03:30 PM 51096
68230 14.8 3.73 5 80 52 73 5.1 -79 8 03/07/2026 03:15 PM 51095
68229 14.8 3.73 5 80 51 74 5.1 -77 8 03/07/2026 03:00 PM 51094
68228 14.9 3.73 0 80 51 74 5.1 -78 7 03/07/2026 02:45 PM 51093
68227 14.8 3.76 5 80 52 73 5.1 -77 8 03/07/2026 02:30 PM 51092
68226 14.9 3.73 5 80 52 73 5.1 -75 8 03/07/2026 02:15 PM 51091
68225 14.8 3.96 5 81 51 74 5.1 -77 7 03/07/2026 02:00 PM 51090
68224 14.9 4.00 6 81 50 74 5.1 -78 8 03/07/2026 01:45 PM 51089
68223 14.8 3.93 5 81 50 74 5.1 -76 8 03/07/2026 01:30 PM 51088
68222 14.9 3.72 5 82 48 74 5.1 -77 8 03/07/2026 01:15 PM 51087
68221 14.9 3.73 5 81 48 74 5.1 -76 7 03/07/2026 01:00 PM 51086
68220 14.9 3.83 0 80 48 73 5.1 -78 7 03/07/2026 12:45 PM 51085
68219 14.9 3.98 5 78 49 73 5.1 -77 8 03/07/2026 12:30 PM 51084
68218 14.9 3.72 0 78 48 72 5.1 -75 8 03/07/2026 12:15 PM 51083
68217 14.9 3.72 0 78 47 72 5.1 -78 7 03/07/2026 12:00 PM 51082
68216 14.9 3.72 5 77 47 73 5.1 -74 7 03/07/2026 11:45 AM 51081
68215 14.9 3.91 0 76 47 71 5.1 -75 7 03/07/2026 11:30 AM 51080
68214 14.9 3.72 0 74 47 70 5.1 -72 8 03/07/2026 11:15 AM 51079
68213 14.8 3.74 5 72 48 69 5.1 -74 7 03/07/2026 11:00 AM 51078